sat.trackr.live / text

‹ back to catalog

STARLINK-4188

NORAD 52843 · 2022-062P

PAYLOAD ACTIVE UNKNOWN

§ Identity

Operator
Country
US
Launch date
2022-06-17
Launch site
AFETR
Launch vehicle
Mass (kg)
RCS (m²)

Purposes: comms

External: N2YO · Heavens-Above · Gunter

§ Orbital elements

Epoch: 2026-05-25T00:42:05.292288Z

Period
95.44 min
Inclination
53.2141°
Eccentricity
0.0001484
Mean motion
15.08840106 rev/d
Perigee alt
538.7 km
Apogee alt
540.8 km
Semi-major
6,917.9 km
B*
-1.5875e-5
RAAN
51.4196°
Arg perigee
78.1793°
Mean anomaly
281.9365°
Rev number
21,731

§ Raw data

STARLINK-41881 52843U 22062P   26145.02922792 -.00000541  00000+0 -15875-4 0  99962 52843  53.2141  51.4196 0001484  78.1793 281.9365 15.08840106217319

JSON: /api/v1/satellites/52843 · /tle

For live sub-satellite position, see the globe view (requires WebGL).

§ Visibility from observer

Set your observer location to see the next 7 days of passes ≥ 10°. The values pass through the URL so the page stays shareable.

No JS? Fill the form by hand. The geolocation button needs JavaScript.